Torna al catalogo

STARLINK-3332

AttivoComunicazioniVLEO
NORAD 50825·PAYLOAD·🇺🇸 United States

Lanciato Jan 6, 2022 da Cape Canaveral Space Force Station

Loading…

Prossimi Passaggi (prossime 24 ore)

TLE

AggiornatoSource: CelesTrak SupGP

Epoca: Sep 14, 2026, 21:37 UTC

1 50825C 22001Y   26257.90118056  .00011843  00000+0  38083-3 0  2575
2 50825  53.1597  29.9013 0001066  80.0176 174.8337 15.31697639    15

Traccia STARLINK-3332 in tempo reale con AllMySat

Download on the App Store